Time,TemperatureF,DewpointF,PressureIn,WindDirection,WindDirectionDegrees,WindSpeedMPH,WindSpeedGustMPH,Humidity,HourlyPrecipIn,Conditions,Clouds,dailyrainin,SoftwareType,DateUTC
2013-06-14 00:02:00,57.0,40.0,-100.00,NW,305,6.0,9.0,52,-99.99,,,-99.99,,2013-06-14 07:02:00,
2013-06-14 00:10:00,53.0,39.0,-100.00,WNW,295,5.0,9.0,58,-99.99,,,-99.99,,2013-06-14 07:10:00,
2013-06-14 02:02:00,51.0,39.0,-100.00,WNW,290,5.0,10.0,63,-99.99,,,-99.99,,2013-06-14 09:02:00,
2013-06-14 02:10:00,49.0,39.0,-100.00,SSW,210,2.0,7.0,68,-99.99,,,-99.99,,2013-06-14 09:10:00,
2013-06-14 02:12:00,51.0,39.0,-100.00,WNW,290,5.0,10.0,63,-99.99,,,-99.99,,2013-06-14 09:12:00,
2013-06-14 03:01:00,49.0,39.0,-100.00,SSW,210,2.0,7.0,68,-99.99,,,-99.99,,2013-06-14 10:01:00,
2013-06-14 04:02:00,49.0,38.0,-100.00,WSW,250,6.0,12.0,65,-99.99,,,-99.99,,2013-06-14 11:02:00,
2013-06-14 04:11:00,49.0,38.0,-100.00,WSW,250,6.0,12.0,65,-99.99,,,-99.99,,2013-06-14 11:11:00,
2013-06-14 05:01:00,49.0,38.0,-100.00,West,260,6.0,13.0,65,-99.99,,,-99.99,,2013-06-14 12:01:00,
2013-06-14 05:10:00,48.0,38.0,-100.00,NW,310,9.0,14.0,68,-99.99,,,-99.99,,2013-06-14 12:10:00,
2013-06-14 07:10:00,52.0,41.0,-100.00,WNW,285,6.0,14.0,65,-99.99,,,-99.99,,2013-06-14 14:10:00,
2013-06-14 07:11:00,48.0,39.0,-100.00,NW,325,7.0,15.0,70,-99.99,,,-99.99,,2013-06-14 14:11:00,
2013-06-14 09:11:00,59.0,44.0,-100.00,WSW,240,7.0,10.0,57,-99.99,,,-99.99,,2013-06-14 16:11:00,
2013-06-14 09:20:00,65.0,46.0,-100.00,North,360,3.0,9.0,50,-99.99,,,-99.99,,2013-06-14 16:20:00,
2013-06-14 10:10:00,69.0,46.0,-100.00,North,360,3.0,7.0,43,-99.99,,,-99.99,,2013-06-14 17:10:00,
2013-06-14 10:11:00,65.0,46.0,-100.00,North,360,3.0,9.0,50,-99.99,,,-99.99,,2013-06-14 17:11:00,
2013-06-14 12:11:00,71.0,46.0,-100.00,North,10,3.0,9.0,40,-99.99,,,-99.99,,2013-06-14 19:11:00,
2013-06-14 13:10:00,80.0,49.0,-100.00,NE,45,5.0,9.0,33,-99.99,,,-99.99,,2013-06-14 20:10:00,
2013-06-14 15:01:00,78.0,48.0,-100.00,NNW,340,3.0,7.0,34,-99.99,,,-99.99,,2013-06-14 22:01:00,
2013-06-14 15:10:00,79.0,48.0,-100.00,NNE,15,3.0,9.0,33,-99.99,,,-99.99,,2013-06-14 22:10:00,
2013-06-14 15:11:00,78.0,48.0,-100.00,NNW,340,3.0,7.0,34,-99.99,,,-99.99,,2013-06-14 22:11:00,
2013-06-14 17:11:00,78.0,47.0,-100.00,NW,305,5.0,10.0,33,-99.99,,,-99.99,,2013-06-15 00:11:00,
2013-06-14 18:10:00,77.0,47.0,-100.00,North,360,3.0,7.0,34,-99.99,,,-99.99,,2013-06-15 01:10:00,
2013-06-14 19:02:00,77.0,47.0,-100.00,North,360,3.0,7.0,34,-99.99,,,-99.99,,2013-06-15 02:02:00,
2013-06-14 20:01:00,73.0,44.0,-100.00,NW,305,5.0,10.0,35,-99.99,,,-99.99,,2013-06-15 03:01:00,
2013-06-14 20:10:00,69.0,43.0,-100.00,WNW,295,6.0,12.0,38,-99.99,,,-99.99,,2013-06-15 03:10:00,
2013-06-14 20:11:00,73.0,44.0,-100.00,NW,305,5.0,10.0,35,-99.99,,,-99.99,,2013-06-15 03:11:00,
2013-06-14 21:01:00,69.0,43.0,-100.00,WNW,295,6.0,12.0,38,-99.99,,,-99.99,,2013-06-15 04:01:00,
2013-06-14 22:02:00,65.0,42.0,-100.00,NW,310,6.0,12.0,43,-99.99,,,-99.99,,2013-06-15 05:02:00,
2013-06-14 22:12:00,65.0,42.0,-100.00,NW,310,6.0,12.0,43,-99.99,,,-99.99,,2013-06-15 05:12:00,
2013-06-14 22:20:00,57.0,43.0,-100.00,NNW,335,2.0,6.0,59,-99.99,,,-99.99,,2013-06-15 05:20:00,
2013-06-14 23:10:00,56.0,44.0,-100.00,NW,305,6.0,9.0,63,-99.99,,,-99.99,,2013-06-15 06:10:00,
2013-06-14 23:12:00,57.0,43.0,-100.00,NNW,335,2.0,6.0,59,-99.99,,,-99.99,,2013-06-15 06:12:00,